Hourly Data Report for October 05, 2013

All times are specified in Local Standard Time (LST). Add 1 hour to adjust for Daylight Saving Time where and when it is observed.

KUGAARUK CLIMATE
NUNAVUT

68°32'15.060" N
89°47'47.020" W
15.80 m
2303094
71407
NBB

Download Data

Hourly Data (October 2013)
Hourly Data Report for October 5, 2013
Temp Definition
°C
Dew Point Temp Definition
°C
Rel Hum Definition
%
Wind Dir Definition
10's deg

Wind Spd Definition
km/h
Visibility Definition
km
Stn Press Definition
kPa
Hmdx Definition


Wind Chill Definition


Weather Definition


TIME
00:00 -5.0 -8.4 77 21 7   102.33   -8 LegendNANA
01:00 -5.0 -9.2 72 18 11   102.29   -10 LegendNANA
02:00 -5.2 -9.2 73 18 13   102.24   -10 LegendNANA
03:00 -5.4 -9.4 73 20 15   102.20   -11 LegendNANA
04:00 -5.5 -9.6 73 19 15   102.16   -11 LegendNANA
05:00 -5.8 -9.9 73 19 17   102.12   -12 LegendNANA
06:00 -5.8 -9.7 74 18 13   102.07   -11 LegendNANA
07:00 -6.0 -10.0 73 18 17   102.01   -12 LegendNANA
08:00 -5.6 -9.7 73 17 15   101.97   -11 LegendNANA
09:00 -4.9 -9.3 71 18 15   101.90   -10 LegendNANA
10:00 -4.3 -9.6 66 18 17   101.85   -10 LegendNANA
11:00 -3.9 -8.7 69 19 17   101.81   -10 LegendNANA
12:00 -3.7 -8.8 68 19 19   101.76   -10 LegendNANA
13:00 -3.4 -8.6 67 18 17   101.72   -9 LegendNANA
14:00 -3.2 -8.3 68 18 11   101.70   -7 LegendNANA
15:00 -3.4 -8.2 69 17 6   101.66   -6 LegendNANA
16:00 -4.0 -8.6 70 16 2   101.67   -5 LegendNANA
17:00 -4.2 -8.5 72 21 2   101.64   -5 LegendNANA
18:00 -4.8 -9.1 72 13 4   101.61   -7 LegendNANA
19:00 -4.8 -9.0 72 23 7   101.56   -8 LegendNANA
20:00 -5.4 -9.1 75 18 17   101.57   -11 LegendNANA
21:00 -5.6 -9.2 76 19 20   101.55   -12 LegendNANA
22:00 -5.8 -9.3 76 18 22   101.53   -13 LegendNANA
23:00 -5.6 -9.5 74 18 26   101.54   -13 LegendNANA

Notes on Data Quality.

Legend

  • E = Estimated
  • M = Missing
  • NA = Not Available
  • ‡ = Partner data that is not subject to review by the National Climate Archives
Date modified: